^^
Station Historical Data
Daily Summary for April 21, 2012 Units:  Metric    English   Both
« Previous Day
Next Day »
Daily Weekly Monthly Yearly Custom
  High: Low: Average:
Temperature: 11.7 °C 1.3 °C 6.9 °C
Dew Point: 4.4 °C -1.6 °C 1.5 °C
Humidity: 92% 51% 70%
Wind Speed: 3.2km/h 0km/h 0.6km/h
Wind Gust: 14.5km/h - -
Wind- - NE
Pressure: 1018.8 hPa 1016.1 hPa -
Precipitation: 0 mm    
Historical Graphs
 
 
Tabular Data for April 21, 2012
Time Temperature Dew Point Pressure Wind Wind Speed Wind Gust Humidity Rainfall Rate (Hourly) solar Conditions
00:09 5.1 °C 2.3 °C 1016.8 hPa NNE 1.6 km/h 6.4 km/h 82% 0 mm 0.0 W/m2 CLR
00:19 5 °C 2.3 °C 1016.8 hPa Calm   3.2 km/h 83% 0 mm 0.0 W/m2 CLR
00:29 4.8 °C 2.2 °C 1016.8 hPa Calm   4.8 km/h 83% 0 mm 0.0 W/m2 CLR
00:39 4.8 °C 2.3 °C 1016.8 hPa North 1.6 km/h 6.4 km/h 84% 0 mm 0.0 W/m2 CLR
00:49 4.6 °C 2.1 °C 1017.2 hPa Calm     84% 0 mm 0.0 W/m2 CLR
00:59 4.4 °C 2.1 °C 1017.2 hPa Calm   1.6 km/h 85% 0 mm 0.0 W/m2 CLR
01:09 4.3 °C 2.1 °C 1017.2 hPa Calm   3.2 km/h 86% 0 mm 0.0 W/m2 CLR
01:19 4.1 °C 2 °C 1017.5 hPa Calm   1.6 km/h 86% 0 mm 0.0 W/m2 CLR
01:29 4.1 °C 2 °C 1017.5 hPa Calm   1.6 km/h 86% 0 mm 0.0 W/m2 CLR
01:39 4.1 °C 1.9 °C 1017.5 hPa Calm   1.6 km/h 86% 0 mm 0.0 W/m2 CLR
01:49 3.9 °C 1.8 °C 1017.5 hPa Calm   1.6 km/h 86% 0 mm 0.0 W/m2 CLR
01:59 3.8 °C 1.7 °C 1017.5 hPa Calm   1.6 km/h 86% 0 mm 0.0 W/m2 CLR
02:09 3.7 °C 1.6 °C 1017.5 hPa Calm     86% 0 mm 0.0 W/m2 CLR
02:19 3.4 °C 1.5 °C 1017.2 hPa Calm   1.6 km/h 87% 0 mm 0.0 W/m2 CLR
02:29 3.3 °C 1.5 °C 1016.8 hPa Calm     88% 0 mm 0.0 W/m2 CLR
02:39 3.1 °C 1.3 °C 1016.8 hPa Calm     88% 0 mm 0.0 W/m2 CLR
02:49 2.8 °C 1.2 °C 1016.8 hPa Calm     89% 0 mm 0.0 W/m2 CLR
02:59 2.7 °C 1.1 °C 1016.8 hPa Calm     89% 0 mm 0.0 W/m2 CLR
03:09 2.5 °C 1.1 °C 1016.8 hPa Calm     90% 0 mm 0.0 W/m2 CLR
03:19 2.4 °C 0.9 °C 1016.8 hPa Calm   3.2 km/h 90% 0 mm 0.0 W/m2 CLR
03:29 2.4 °C 1.1 °C 1016.8 hPa Calm   1.6 km/h 91% 0 mm 0.0 W/m2 CLR
03:39 2.3 °C 1 °C 1016.8 hPa Calm     91% 0 mm 0.0 W/m2 CLR
03:49 2.2 °C 0.9 °C 1016.8 hPa Calm   1.6 km/h 91% 0 mm 0.0 W/m2 CLR
03:59 2.1 °C 0.7 °C 1016.8 hPa Calm     91% 0 mm 0.0 W/m2 CLR
04:09 2 °C 0.7 °C 1016.8 hPa Calm   1.6 km/h 91% 0 mm 0.0 W/m2 CLR
04:19 1.9 °C 0.8 °C 1017.2 hPa Calm   1.6 km/h 92% 0 mm 0.0 W/m2 CLR
04:29 1.8 °C 0.7 °C 1017.2 hPa Calm   1.6 km/h 92% 0 mm 0.0 W/m2 CLR
04:39 1.8 °C 0.6 °C 1017.2 hPa Calm     92% 0 mm 0.0 W/m2 CLR
04:49 1.8 °C 0.6 °C 1017.2 hPa Calm   1.6 km/h 92% 0 mm 0.0 W/m2 CLR
04:59 1.7 °C 0.6 °C 1017.2 hPa Calm     92% 0 mm 0.0 W/m2 CLR
05:09 1.7 °C 0.5 °C 1017.2 hPa Calm     92% 0 mm 0.0 W/m2 CLR
05:19 1.6 °C 0.4 °C 1017.5 hPa Calm     92% 0 mm 0.0 W/m2 CLR
05:29 1.5 °C 0.3 °C 1017.2 hPa Calm     92% 0 mm 0.0 W/m2 CLR
05:39 1.5 °C 0.3 °C 1017.2 hPa Calm     92% 0 mm 0.0 W/m2 CLR
05:49 1.4 °C 0.2 °C 1017.5 hPa Calm     92% 0 mm 0.0 W/m2 CLR
05:59 1.3 °C 0.2 °C 1017.5 hPa Calm   1.6 km/h 92% 0 mm 0.0 W/m2 CLR
06:09 1.4 °C 0.3 °C 1017.5 hPa Calm   1.6 km/h 92% 0 mm 5.0 W/m2 OVC
06:19 1.5 °C 0.3 °C 1017.8 hPa Calm     92% 0 mm 14.0 W/m2 OVC
06:29 1.6 °C 0.4 °C 1017.8 hPa Calm   1.6 km/h 92% 0 mm 18.0 W/m2 OVC
06:39 1.7 °C 0.5 °C 1017.8 hPa Calm   3.2 km/h 92% 0 mm 21.0 W/m2 OVC
06:49 1.8 °C 0.7 °C 1018.2 hPa Calm   1.6 km/h 92% 0 mm 26.0 W/m2 OVC
06:59 2 °C 0.8 °C 1018.5 hPa Calm   3.2 km/h 92% 0 mm 26.0 W/m2 OVC
07:09 2.3 °C 0.9 °C 1018.2 hPa Calm   4.8 km/h 91% 0 mm 46.0 W/m2 SCT
07:19 2.6 °C 1.3 °C 1018.2 hPa Calm   1.6 km/h 91% 0 mm 54.0 W/m2 CLR
07:29 3 °C 1.7 °C 1018.5 hPa North 1.6 km/h 6.4 km/h 91% 0 mm 49.0 W/m2 CLR
07:39 3.3 °C 1.8 °C 1018.5 hPa NW 1.6 km/h 3.2 km/h 90% 0 mm 63.0 W/m2 CLR
07:49 3.8 °C 2.2 °C 1018.5 hPa Calm   3.2 km/h 89% 0 mm 79.0 W/m2 FEW
07:59 4.3 °C 2.5 °C 1018.5 hPa Calm   4.8 km/h 88% 0 mm 104.0 W/m2 SCT
08:09 4.8 °C 2.8 °C 1018.5 hPa NNE 1.6 km/h 8 km/h 87% 0 mm 195.0 W/m2 CLR
08:19 5.4 °C 3.2 °C 1018.5 hPa Calm   4.8 km/h 86% 0 mm 380.0 W/m2 CLR
08:29 5.9 °C 3.6 °C 1018.2 hPa Calm   6.4 km/h 85% 0 mm 411.0 W/m2 CLR
08:39 6.6 °C 3.8 °C 1018.5 hPa Calm   11.3 km/h 83% 0 mm 448.0 W/m2 CLR
08:49 6.9 °C 3.7 °C 1018.5 hPa NNE 1.6 km/h 9.7 km/h 80% 0 mm 455.0 W/m2 CLR
08:59 7.3 °C 3.8 °C 1018.5 hPa North 1.6 km/h 6.4 km/h 79% 0 mm 524.0 W/m2 CLR
09:09 7.7 °C 4.2 °C 1018.5 hPa Calm   8 km/h 78% 0 mm 584.0 W/m2 CLR
09:19 8.7 °C 4.4 °C 1018.5 hPa NE 1.6 km/h 11.3 km/h 75% 0 mm 109.0 W/m2 CLR
09:29 8.4 °C 3.8 °C 1018.5 hPa NNE 1.6 km/h 9.7 km/h 73% 0 mm 606.0 W/m2 CLR
09:39 8.3 °C 4.3 °C 1018.5 hPa Calm   6.4 km/h 76% 0 mm 701.0 W/m2 SCT
09:49 8.9 °C 3.9 °C 1018.5 hPa NNE 1.6 km/h 14.5 km/h 71% 0 mm 206.0 W/m2 CLR
09:59 8.9 °C 3.7 °C 1018.5 hPa NNE 1.6 km/h 8 km/h 70% 0 mm 817.0 W/m2 SCT
10:09 9.3 °C 3.4 °C 1018.5 hPa North 1.6 km/h 8 km/h 67% 0 mm 172.0 W/m2 CLR
10:19 8.7 °C 3.2 °C 1018.8 hPa Calm   9.7 km/h 68% 0 mm 802.0 W/m2 SCT
10:29 8.5 °C 2.5 °C 1018.8 hPa Calm   6.4 km/h 66% 0 mm 236.0 W/m2 SCT
10:39 9 °C 2.7 °C 1018.5 hPa North 1.6 km/h 11.3 km/h 65% 0 mm 849.0 W/m2 CLR
10:49 8.9 °C 2.3 °C 1018.5 hPa NNE 1.6 km/h 8 km/h 63% 0 mm 193.0 W/m2 BKN
10:59 8.7 °C 2.3 °C 1018.5 hPa North 1.6 km/h 6.4 km/h 64% 0 mm 322.0 W/m2 BKN
11:09 9 °C 2.6 °C 1018.5 hPa Calm   11.3 km/h 64% 0 mm 211.0 W/m2 BKN
11:19 10.1 °C 3.8 °C 1018.5 hPa NE 1.6 km/h 8 km/h 65% 0 mm 958.0 W/m2 CLR
11:29 11.2 °C 3.7 °C 1018.5 hPa Calm   8 km/h 60% 0 mm 990.0 W/m2 CLR
11:39 11.6 °C 3.8 °C 1018.5 hPa East 1.6 km/h 8 km/h 59% 0 mm 580.0 W/m2 CLR
11:59 10.7 °C 3.2 °C 1018.2 hPa NNE 1.6 km/h 6.4 km/h 60% 0 mm 239.0 W/m2 BKN
12:09 11 °C 3.7 °C 1018.2 hPa Calm   9.7 km/h 61% 0 mm 251.0 W/m2 BKN
12:19 11.2 °C 3.3 °C 1018.2 hPa ENE 3.2 km/h 9.7 km/h 58% 0 mm 276.0 W/m2 BKN
12:29 11.1 °C 3.1 °C 1018.2 hPa ENE 1.6 km/h 9.7 km/h 58% 0 mm 230.0 W/m2 BKN
12:39 10.9 °C 2.7 °C 1017.8 hPa Calm   6.4 km/h 57% 0 mm 237.0 W/m2 BKN
12:49 10.8 °C 3.6 °C 1017.8 hPa NE 3.2 km/h 11.3 km/h 61% 0 mm 162.0 W/m2 BKN
12:59 10.7 °C 3 °C 1017.5 hPa NNE 1.6 km/h 8 km/h 59% 0 mm 139.0 W/m2 BKN
13:09 11.1 °C 3.1 °C 1017.5 hPa NE 1.6 km/h 11.3 km/h 58% 0 mm 793.0 W/m2 BKN
13:19 11.2 °C 3.5 °C 1017.5 hPa Calm   11.3 km/h 59% 0 mm 647.0 W/m2 BKN
13:29 11.2 °C 3.3 °C 1017.8 hPa NNE 1.6 km/h 14.5 km/h 58% 0 mm 160.0 W/m2 BKN
13:39 11.2 °C 3 °C 1017.8 hPa NE 1.6 km/h 9.7 km/h 57% 0 mm 200.0 W/m2 BKN
13:49 10.9 °C 2.9 °C 1017.5 hPa NE 3.2 km/h 11.3 km/h 58% 0 mm 450.0 W/m2 BKN
13:59 11.1 °C 2.8 °C 1017.5 hPa NE 1.6 km/h 11.3 km/h 57% 0 mm 237.0 W/m2 BKN
14:09 11.3 °C 3.3 °C 1017.5 hPa East 3.2 km/h 9.7 km/h 58% 0 mm 276.0 W/m2 BKN
14:19 11.6 °C 3.1 °C 1017.2 hPa NE 3.2 km/h 8 km/h 56% 0 mm 258.0 W/m2 BKN
14:29 11.3 °C 2.6 °C 1017.2 hPa Calm   6.4 km/h 55% 0 mm 185.0 W/m2 BKN
14:39 11 °C 3.1 °C 1017.2 hPa NNE 1.6 km/h 6.4 km/h 58% 0 mm 206.0 W/m2 BKN
14:49 10.9 °C 2.4 °C 1016.8 hPa Calm   4.8 km/h 56% 0 mm 234.0 W/m2 BKN
14:59 11.2 °C 2.5 °C 1016.8 hPa NE 1.6 km/h 6.4 km/h 55% 0 mm 264.0 W/m2 BKN
15:09 11.4 °C 2.7 °C 1016.8 hPa ENE 1.6 km/h 9.7 km/h 55% 0 mm 257.0 W/m2 BKN
15:19 11.6 °C 2.6 °C 1016.8 hPa NE 1.6 km/h 6.4 km/h 54% 0 mm 213.0 W/m2 BKN
15:29 11.5 °C 2.5 °C 1016.8 hPa Calm   6.4 km/h 54% 0 mm 466.0 W/m2 BKN
15:39 11.7 °C 2.7 °C 1016.5 hPa NNE 1.6 km/h 12.9 km/h 54% 0 mm 283.0 W/m2 BKN
15:49 11.4 °C 2.1 °C 1016.5 hPa Calm   8 km/h 53% 0 mm 193.0 W/m2 BKN
15:59 11.2 °C 1.9 °C 1016.5 hPa Calm   6.4 km/h 53% 0 mm 139.0 W/m2 BKN
16:09 10.9 °C 2 °C 1016.5 hPa Calm   9.7 km/h 54% 0 mm 186.0 W/m2 BKN
16:19 11.1 °C 2.1 °C 1016.5 hPa Calm   4.8 km/h 54% 0 mm 141.0 W/m2 BKN
16:29 11.2 °C 1.7 °C 1016.5 hPa ENE 1.6 km/h 6.4 km/h 52% 0 mm 130.0 W/m2 BKN
16:39 11.2 °C 2 °C 1016.1 hPa Calm   8 km/h 53% 0 mm 144.0 W/m2 BKN
16:49 11.3 °C 1.5 °C 1016.1 hPa NNE 1.6 km/h 6.4 km/h 51% 0 mm 148.0 W/m2 BKN
16:59 11.2 °C 1.7 °C 1016.1 hPa NE 1.6 km/h 8 km/h 52% 0 mm 102.0 W/m2 BKN
17:09 10.9 °C 1.2 °C 1016.1 hPa Calm   4.8 km/h 51% 0 mm 83.0 W/m2 BKN
17:19 10.9 °C 1.4 °C 1016.5 hPa NE 1.6 km/h 4.8 km/h 52% 0 mm 125.0 W/m2 BKN
17:29 11.1 °C 1.3 °C 1016.5 hPa NE 1.6 km/h 6.4 km/h 51% 0 mm 160.0 W/m2 BKN
17:39 11.3 °C 1.8 °C 1016.5 hPa ENE 1.6 km/h 8 km/h 52% 0 mm 142.0 W/m2 BKN
17:49 11.5 °C 1.7 °C 1016.5 hPa Calm   8 km/h 51% 0 mm 142.0 W/m2 BKN
17:59 11.4 °C 1.6 °C 1016.5 hPa East 1.6 km/h 8 km/h 51% 0 mm 139.0 W/m2 BKN
18:09 11.2 °C 1.4 °C 1016.5 hPa ENE 1.6 km/h 11.3 km/h 51% 0 mm 113.0 W/m2 BKN
18:19 10.8 °C 1.1 °C 1016.5 hPa NNE 1.6 km/h 11.3 km/h 51% 0 mm 58.0 W/m2 BKN
18:29 10.3 °C 0.8 °C 1016.5 hPa Calm   6.4 km/h 52% 0 mm 44.0 W/m2 BKN
18:39 9.8 °C 0.4 °C 1016.5 hPa Calm   6.4 km/h 52% 0 mm 28.0 W/m2 BKN
18:49 9.5 °C 0.7 °C 1016.5 hPa Calm   3.2 km/h 54% 0 mm 25.0 W/m2 BKN
18:59 9.3 °C 0.4 °C 1016.5 hPa Calm   4.8 km/h 54% 0 mm 32.0 W/m2 BKN
19:09 9.2 °C 0.3 °C 1016.5 hPa Calm   3.2 km/h 54% 0 mm 30.0 W/m2 BKN
19:19 9 °C 0.2 °C 1016.8 hPa Calm   3.2 km/h 54% 0 mm 21.0 W/m2 BKN
19:29 8.8 °C -0.3 °C 1016.8 hPa Calm   4.8 km/h 53% 0 mm 9.0 W/m2 OVC
19:39 8.5 °C -0.3 °C 1016.8 hPa Calm   4.8 km/h 54% 0 mm 0.0 W/m2 OVC
19:49 8.3 °C -0.3 °C 1016.8 hPa Calm   4.8 km/h 55% 0 mm 0.0 W/m2 OVC
20:09 7.8 °C -0.9 °C 1017.2 hPa Calm   3.2 km/h 54% 0 mm 0.0 W/m2 CLR
20:19 7.6 °C -1.1 °C 1017.2 hPa Calm   3.2 km/h 54% 0 mm 0.0 W/m2 CLR
20:29 7.4 °C -1.3 °C 1017.2 hPa Calm   4.8 km/h 54% 0 mm 0.0 W/m2 CLR
20:39 7.2 °C -1.4 °C 1017.2 hPa NE 1.6 km/h 3.2 km/h 54% 0 mm 0.0 W/m2 CLR
20:49 7.1 °C -1.6 °C 1017.5 hPa Calm   6.4 km/h 54% 0 mm 0.0 W/m2 CLR
20:59 6.8 °C -1.3 °C 1017.5 hPa Calm   4.8 km/h 56% 0 mm 0.0 W/m2 CLR
21:09 6.7 °C -1.4 °C 1017.5 hPa Calm   3.2 km/h 56% 0 mm 0.0 W/m2 CLR
21:19 6.6 °C -1.3 °C 1017.5 hPa Calm   4.8 km/h 57% 0 mm 0.0 W/m2 CLR
21:29 6.6 °C -1.1 °C 1017.5 hPa NE 1.6 km/h 8 km/h 58% 0 mm 0.0 W/m2 CLR
21:39 6.6 °C -1.1 °C 1017.5 hPa Calm   8 km/h 58% 0 mm 0.0 W/m2 CLR
21:49 6.5 °C -0.7 °C 1017.2 hPa Calm   4.8 km/h 60% 0 mm 0.0 W/m2 CLR
21:59 6.3 °C -0.7 °C 1017.2 hPa Calm   3.2 km/h 61% 0 mm 0.0 W/m2 CLR
22:09 6.2 °C -0.6 °C 1017.2 hPa Calm   6.4 km/h 62% 0 mm 0.0 W/m2 CLR
22:19 6.1 °C -0.7 °C 1017.2 hPa Calm   8 km/h 62% 0 mm 0.0 W/m2 CLR
22:29 5.9 °C -0.9 °C 1017.2 hPa Calm   3.2 km/h 62% 0 mm 0.0 W/m2 CLR
22:39 5.7 °C -0.8 °C 1017.2 hPa Calm   3.2 km/h 63% 0 mm 0.0 W/m2 CLR
22:49 5.5 °C -0.8 °C 1016.8 hPa NE 1.6 km/h 6.4 km/h 64% 0 mm 0.0 W/m2 CLR
22:59 5.4 °C -0.7 °C 1016.8 hPa Calm   3.2 km/h 65% 0 mm 0.0 W/m2 CLR
23:09 5.2 °C -0.8 °C 1016.8 hPa Calm   3.2 km/h 65% 0 mm 0.0 W/m2 CLR
23:19 5.1 °C -0.8 °C 1016.8 hPa Calm   6.4 km/h 66% 0 mm 0.0 W/m2 CLR
23:29 5 °C -0.4 °C 1016.8 hPa Calm   3.2 km/h 68% 0 mm 0.0 W/m2 CLR
23:39 4.9 °C -0.5 °C 1016.8 hPa Calm   4.8 km/h 68% 0 mm 0.0 W/m2 CLR
23:49 4.8 °C -0.2 °C 1016.8 hPa Calm     70% 0 mm 0.0 W/m2 CLR
23:59 4.7 °C -0.3 °C 1016.8 hPa Calm   3.2 km/h 70% 0 mm 0.0 W/m2 CLR
jolietwx - Weather
Compliments of Weather Underground - 1.25 mb